Flag for U.S.A. Weather past 2 weeks in Greeley, Colorado, U.S.A.

Now
75 °F

Sunny.


Feels Like: 76 °F
Forecast: 37 / 76 °F
Wind: 8 mph from Southeast

Location: Greeley / Weld

Current Time: Oct 24, 2014 at 6:14:48 PM

Latest Report: Oct 24, 2014 at 5:35 PM


Visibility: 10 mi

Pressure: 30.12 "Hg

Humidity: 19%

Dew point: 30 °F

Location of GreeleyLocation

Historic Weather in Greeley — Graph

°F

Greeley temperature yesterday

Maximum temperature yesterday: 75 °F (at 3:35 PM)
Minimum temperature yesterday: 34 °F (at 6:35 AM)
Average temperature yesterday: 52 °F

Past Weeks' High & Low Weather Summary

 TemperatureHumidityPressure
High81 °F (Oct 24, 2:55 PM)87% (Oct 11, 7:35 AM)30.25 "Hg (Oct 11, 7:35 AM)
Low28 °F (Oct 14, 7:15 AM)14% (Oct 24, 2:55 PM)29.70 "Hg (Oct 12, 6:55 AM)
Average52 °F54%30.07 "Hg
* Reported Oct 9 5:15 PM — Oct 24 5:15 PM, Greeley, Weather by CustomWeather, © 2014

Note: Actual official high and low records may vary slightly from our data, if they occured in-between our weather recording intervals... More about our weather records

Advertising

Greeley weather history for previous 24 hours

 ConditionsComfort  
Time TempWeatherWind HumidityBarometerVisibility
5:15 PM
Oct 24
79 °FSunny.8 mph16%30.12 "Hg10 mi
4:55 PM79 °FSunny.7 mph16%30.11 "Hg10 mi
4:35 PM79 °FSunny.7 mph16%30.11 "Hg10 mi
4:15 PM81 °FSunny.5 mph15%30.11 "Hg10 mi
3:55 PM81 °FSunny.No wind14%30.11 "Hg10 mi
3:35 PM81 °FSunny.6 mph14%30.11 "Hg10 mi
3:15 PM79 °FSunny.6 mph15%30.11 "Hg10 mi
2:55 PM81 °FSunny.No wind14%30.11 "Hg8 mi
2:35 PM77 °FSunny.3 mph15%30.11 "Hg10 mi
2:15 PM77 °FSunny.3 mph15%30.12 "Hg10 mi
1:55 PM77 °FSunny.3 mph17%30.12 "Hg10 mi
1:35 PM77 °FSunny.5 mph18%30.13 "Hg10 mi
1:15 PM77 °FSunny.3 mph19%30.14 "Hg10 mi
12:55 PM73 °FSunny.No wind23%30.14 "Hg10 mi
12:35 PM72 °FSunny.5 mph31%30.15 "Hg10 mi
12:15 PM70 °FSunny.No wind33%30.16 "Hg10 mi
11:55 AM64 °FSunny.No wind43%30.17 "Hg10 mi
11:35 AM64 °FSunny.3 mph40%30.18 "Hg10 mi
11:15 AM61 °FSunny.No wind45%30.17 "Hg10 mi
10:55 AM59 °FSunny.8 mph48%30.16 "Hg10 mi
10:35 AM57 °FSunny.7 mph51%30.17 "Hg10 mi
10:15 AM55 °FSunny.5 mph55%30.17 "Hg10 mi
9:55 AM54 °FSunny.6 mph54%30.18 "Hg10 mi
9:35 AM52 °FSunny.8 mph58%30.17 "Hg10 mi
9:15 AM48 °FSunny.7 mph66%30.17 "Hg10 mi
8:55 AM46 °FSunny.3 mph66%30.17 "Hg10 mi
8:35 AM46 °FSunny.No wind66%30.17 "Hg10 mi
8:15 AM45 °FClear.3 mph71%30.16 "Hg10 mi
7:55 AM45 °FClear.5 mph66%30.15 "Hg10 mi
7:35 AM45 °FClear.5 mph66%30.14 "Hg10 mi
7:15 AM45 °FClear.6 mph66%30.14 "Hg10 mi
6:55 AM45 °FClear.No wind66%30.13 "Hg10 mi
6:35 AM45 °FClear.No wind66%30.13 "Hg10 mi
6:15 AM45 °FClear.No wind66%30.13 "Hg10 mi
5:55 AM45 °FClear.3 mph66%30.12 "Hg10 mi
5:35 AM45 °FClear.3 mph66%30.12 "Hg10 mi
4:55 AM45 °FClear.No wind66%30.12 "Hg10 mi
4:35 AM46 °FClear.6 mph66%30.11 "Hg10 mi
3:55 AM46 °FClear.3 mph62%30.11 "Hg10 mi
3:35 AM46 °FClear.7 mph66%30.11 "Hg10 mi
3:15 AM45 °FClear.5 mph66%30.12 "Hg10 mi
2:55 AM45 °FClear.5 mph66%30.12 "Hg10 mi
2:35 AM46 °FClear.5 mph62%30.12 "Hg10 mi
1:55 AM46 °FClear.3 mph62%30.11 "Hg10 mi
1:35 AM46 °FClear.No wind62%30.11 "Hg10 mi
1:15 AM46 °FClear.3 mph62%30.11 "Hg10 mi
12:55 AM46 °FClear.No wind62%30.11 "Hg10 mi
12:35 AM48 °FClear.No wind62%30.10 "Hg10 mi
12:15 AM48 °FClear.3 mph62%30.10 "Hg10 mi
11:55 PM
Oct 23
48 °FClear.5 mph58%30.10 "Hg10 mi
11:35 PM48 °FClear.3 mph62%30.10 "Hg10 mi
11:15 PM48 °FClear.No wind58%30.10 "Hg10 mi
10:55 PM48 °FClear.No wind58%30.10 "Hg10 mi
10:35 PM52 °FClear.No wind50%30.10 "Hg10 mi
10:15 PM52 °FClear.No wind54%30.10 "Hg10 mi
9:55 PM54 °FClear.No wind51%30.10 "Hg10 mi
9:35 PM52 °FClear.No wind54%30.10 "Hg10 mi
9:15 PM52 °FClear.3 mph54%30.10 "Hg10 mi
8:55 PM54 °FClear.6 mph47%30.09 "Hg10 mi
8:35 PM54 °FClear.3 mph47%30.09 "Hg10 mi
8:15 PM54 °FClear.5 mph47%30.09 "Hg10 mi
7:55 PM52 °FClear.No wind44%30.09 "Hg10 mi
7:35 PM54 °FClear.No wind47%30.09 "Hg8 mi
7:15 PM55 °FClear.No wind47%30.09 "Hg7 mi
6:55 PM59 °FSunny.5 mph42%30.08 "Hg5 mi
6:35 PM61 °FSunny.6 mph39%30.08 "Hg9 mi
6:15 PM63 °FSunny.No wind34%30.07 "Hg10 mi
Weather by CustomWeather, © 2014

See weather overviewHow to use our weather pages